When you browse on this site, cookies collect data to enhance your experience and personalize the content and advertising you see.
Visit our Privacy Policy to learn more. By continuing to use the site, you agree to this use of cookies and data.
  • In Hungary
  • List of Countries
  • For 7 days
  • Water Temperature
  • Satellite Maps
  • Weather Map
  • News
  • Weather Widgets
  • user-avatar
    Login

    Hourly Weather Harrogate

    Today, 17 December, Monday

    Time Temperature Precipitation Wind Pressure Humidity
    00:00 +5°C° 0.7 mm 1 mps 744 mmHg 97%
    01:00 +5°C° 0.1 mm 1 mps 744 mmHg 96%
    02:00 +4°C° 0.1 mm 2 mps 745 mmHg 95%
    03:00 +3°C° 0.1 mm 3 mps 745 mmHg 94%
    04:00 +3°C° 0 mm 3 mps 746 mmHg 93%
    05:00 +3°C° 0 mm 3 mps 746 mmHg 92%
    06:00 +3°C° 0 mm 3 mps 747 mmHg 92%
    07:00 +3°C° 0 mm 3 mps 748 mmHg 91%
    08:00 +3°C° 0 mm 3 mps 748 mmHg 91%
    09:00 +3°C° 0 mm 3 mps 749 mmHg 91%
    10:00 +3°C° 0 mm 3 mps 749 mmHg 89%
    11:00 +4°C° 0 mm 3 mps 750 mmHg 87%
    12:00 +5°C° 0 mm 3 mps 750 mmHg 85%
    13:00 +5°C° 0 mm 3 mps 750 mmHg 86%
    14:00 +5°C° 0 mm 3 mps 750 mmHg 87%
    15:00 +4°C° 0 mm 3 mps 750 mmHg 88%
    16:00 +4°C° 0 mm 4 mps 750 mmHg 90%
    17:00 +4°C° 0 mm 4 mps 750 mmHg 91%
    18:00 +4°C° 0 mm 4 mps 750 mmHg 92%
    19:00 +5°C° 0.1 mm 5 mps 750 mmHg 92%
    20:00 +5°C° 0.1 mm 5 mps 749 mmHg 92%
    21:00 +5°C° 0.1 mm 6 mps 749 mmHg 93%
    22:00 +5°C° 0 mm 6 mps 749 mmHg 92%
    23:00 +7°C° 0 mm 6 mps 749 mmHg 92%

    Tomorrow, 18 December, Tuesday

    Time Temperature Precipitation Wind Pressure Humidity
    00:00 +7°C° 0 mm 6 mps 749 mmHg 91%
    01:00 +7°C° 0 mm 6 mps 748 mmHg 91%
    02:00 +7°C° 0 mm 6 mps 748 mmHg 90%
    03:00 +7°C° 0 mm 6 mps 747 mmHg 90%
    04:00 +6°C° 0.1 mm 7 mps 747 mmHg 89%
    05:00 +8°C° 0.1 mm 7 mps 746 mmHg 89%
    06:00 +8°C° 0.1 mm 7 mps 746 mmHg 89%
    07:00 +7°C° 0 mm 8 mps 745 mmHg 88%
    08:00 +7°C° 0 mm 8 mps 744 mmHg 86%
    09:00 +7°C° 0 mm 9 mps 744 mmHg 85%
    10:00 +7°C° 0.2 mm 9 mps 743 mmHg 84%
    11:00 +7°C° 0.2 mm 9 mps 743 mmHg 82%
    12:00 +6°C° 0.2 mm 10 mps 742 mmHg 81%
    13:00 +6°C° 0.6 mm 10 mps 741 mmHg 81%
    14:00 +6°C° 0.6 mm 9 mps 740 mmHg 81%
    15:00 +6°C° 0.6 mm 9 mps 739 mmHg 80%
    16:00 +6°C° 1.1 mm 9 mps 739 mmHg 82%
    17:00 +5°C° 1.1 mm 8 mps 739 mmHg 84%
    18:00 +5°C° 1.1 mm 8 mps 739 mmHg 86%
    19:00 +5°C° 1.7 mm 7 mps 739 mmHg 88%
    20:00 +5°C° 1.7 mm 6 mps 739 mmHg 90%
    21:00 +6°C° 1.7 mm 4 mps 739 mmHg 92%
    22:00 +5°C° 0.3 mm 4 mps 739 mmHg 91%
    23:00 +5°C° 0.3 mm 3 mps 739 mmHg 91%

    Day after tomorrow, 19 December, Wednesday

    Time Temperature Precipitation Wind Pressure Humidity
    00:00 +6°C° 0.3 mm 2 mps 739 mmHg 90%
    01:00 +5°C° 0 mm 3 mps 739 mmHg 91%
    02:00 +5°C° 0 mm 3 mps 740 mmHg 91%
    03:00 +4°C° 0 mm 3 mps 740 mmHg 92%
    04:00 +4°C° 0 mm 3 mps 740 mmHg 92%
    05:00 +4°C° 0 mm 3 mps 741 mmHg 92%
    06:00 +4°C° 0 mm 3 mps 741 mmHg 92%
    07:00 +3°C° 0 mm 3 mps 741 mmHg 92%
    08:00 +3°C° 0 mm 3 mps 742 mmHg 92%
    09:00 +4°C° 0 mm 2 mps 742 mmHg 91%
    10:00 +4°C° 0 mm 3 mps 742 mmHg 88%
    11:00 +4°C° 0 mm 3 mps 742 mmHg 85%
    12:00 +5°C° 0 mm 3 mps 742 mmHg 82%
    13:00 +5°C° 0 mm 3 mps 742 mmHg 83%
    14:00 +5°C° 0 mm 3 mps 742 mmHg 84%
    15:00 +4°C° 0 mm 3 mps 742 mmHg 86%
    16:00 +4°C° 0 mm 3 mps 742 mmHg 87%
    17:00 +3°C° 0 mm 3 mps 742 mmHg 88%
    18:00 +3°C° 0 mm 3 mps 742 mmHg 89%
    19:00 +3°C° 0 mm 4 mps 742 mmHg 89%
    20:00 +3°C° 0 mm 4 mps 742 mmHg 89%
    21:00 +3°C° 0 mm 4 mps 742 mmHg 89%
    22:00 +3°C° 0 mm 4 mps 742 mmHg 90%
    23:00 +3°C° 0 mm 4 mps 742 mmHg 90%

    20 December, Thursday

    Time Temperature Precipitation Wind Pressure Humidity
    00:00 +3°C° 0 mm 4 mps 742 mmHg 91%
    01:00 +3°C° 0 mm 4 mps 741 mmHg 91%
    02:00 +3°C° 0 mm 4 mps 741 mmHg 91%
    03:00 +3°C° 0 mm 4 mps 741 mmHg 91%
    04:00 +3°C° 0.1 mm 4 mps 741 mmHg 91%
    05:00 +3°C° 0.1 mm 4 mps 741 mmHg 91%
    06:00 +3°C° 0.1 mm 4 mps 741 mmHg 92%
    07:00 +3°C° 0.1 mm 4 mps 741 mmHg 91%
    08:00 +4°C° 0.1 mm 4 mps 741 mmHg 91%
    09:00 +4°C° 0.1 mm 4 mps 741 mmHg 91%
    10:00 +3°C° 0.1 mm 5 mps 742 mmHg 88%
    11:00 +5°C° 0.1 mm 5 mps 742 mmHg 86%
    12:00 +6°C° 0.1 mm 5 mps 742 mmHg 83%
    13:00 +6°C° 0.2 mm 5 mps 742 mmHg 83%
    14:00 +6°C° 0.2 mm 5 mps 743 mmHg 83%
    15:00 +5°C° 0.2 mm 5 mps 743 mmHg 84%
    16:00 +5°C° 0.2 mm 4 mps 743 mmHg 84%
    17:00 +5°C° 0.2 mm 4 mps 744 mmHg 85%
    18:00 +4°C° 0.2 mm 4 mps 744 mmHg 86%
    19:00 +4°C° 0 mm 3 mps 744 mmHg 87%
    20:00 +3°C° 0 mm 3 mps 745 mmHg 88%
    21:00 +3°C° 0 mm 3 mps 745 mmHg 90%
    22:00 +3°C° 0 mm 3 mps 745 mmHg 90%
    23:00 +3°C° 0 mm 3 mps 746 mmHg 91%

    21 December, Friday

    Time Temperature Precipitation Wind Pressure Humidity
    00:00 +3°C° 0 mm 3 mps 746 mmHg 91%
    01:00 +4°C° 0 mm 2 mps 746 mmHg 91%
    02:00 +4°C° 0 mm 2 mps 745 mmHg 92%
    03:00 +4°C° 0 mm 2 mps 745 mmHg 92%
    04:00 +4°C° 0.1 mm 2 mps 745 mmHg 93%
    05:00 +4°C° 0.1 mm 2 mps 745 mmHg 93%
    06:00 +4°C° 0.1 mm 2 mps 745 mmHg 93%
    07:00 +3°C° 0.8 mm 3 mps 744 mmHg 93%
    08:00 +3°C° 0.8 mm 3 mps 744 mmHg 94%
    09:00 +3°C° 0.8 mm 3 mps 743 mmHg 94%
    10:00 +3°C° 1.1 mm 4 mps 743 mmHg 94%
    11:00 +4°C° 1.1 mm 4 mps 743 mmHg 94%
    12:00 +4°C° 1.1 mm 4 mps 742 mmHg 93%
    13:00 +4°C° 0.1 mm 4 mps 743 mmHg 93%
    14:00 +5°C° 0.1 mm 4 mps 743 mmHg 93%
    15:00 +5°C° 0.1 mm 4 mps 743 mmHg 93%
    16:00 +5°C° 0 mm 3 mps 743 mmHg 92%
    17:00 +5°C° 0 mm 3 mps 744 mmHg 90%
    18:00 +5°C° 0 mm 3 mps 744 mmHg 89%
    19:00 +5°C° 0.4 mm 4 mps 745 mmHg 90%
    20:00 +5°C° 0.4 mm 4 mps 745 mmHg 91%
    21:00 +5°C° 0.4 mm 4 mps 745 mmHg 92%
    22:00 +5°C° 0.2 mm 5 mps 745 mmHg 92%
    23:00 +6°C° 0.2 mm 5 mps 745 mmHg 91%

    22 December, Saturday

    Time Temperature Precipitation Wind Pressure Humidity
    00:00 +5°C° 0.2 mm 6 mps 745 mmHg 91%
    01:00 +6°C° 0.1 mm 5 mps 745 mmHg 91%
    02:00 +7°C° 0.1 mm 5 mps 746 mmHg 91%
    03:00 +7°C° 0.1 mm 5 mps 746 mmHg 91%
    04:00 +7°C° 0.1 mm 4 mps 746 mmHg 92%
    05:00 +6°C° 0.1 mm 4 mps 746 mmHg 92%
    06:00 +7°C° 0.1 mm 3 mps 747 mmHg 93%
    07:00 +7°C° 0 mm 3 mps 747 mmHg 93%
    08:00 +7°C° 0 mm 3 mps 748 mmHg 93%
    09:00 +7°C° 0 mm 3 mps 748 mmHg 93%
    10:00 +7°C° 0 mm 3 mps 749 mmHg 91%
    11:00 +8°C° 0 mm 3 mps 749 mmHg 88%
    12:00 +8°C° 0 mm 4 mps 750 mmHg 86%
    13:00 +8°C° 0 mm 3 mps 750 mmHg 87%
    14:00 +8°C° 0 mm 3 mps 750 mmHg 88%
    15:00 +8°C° 0 mm 3 mps 750 mmHg 89%
    16:00 +7°C° 0 mm 3 mps 751 mmHg 91%
    17:00 +7°C° 0 mm 3 mps 751 mmHg 92%
    18:00 +7°C° 0 mm 3 mps 751 mmHg 93%
    19:00 +7°C° 0 mm 3 mps 751 mmHg 93%
    20:00 +7°C° 0 mm 3 mps 752 mmHg 93%
    21:00 +7°C° 0 mm 3 mps 752 mmHg 93%
    22:00 +6°C° 0.4 mm 4 mps 751 mmHg 93%
    23:00 +7°C° 0.4 mm 4 mps 751 mmHg 93%
    Show more